Weather History for Cocoa Beach, FL

Change the Weather History Date:

Wednesday, April 16, 2014

  Actual Average Record
Temperature  
Mean Temperature 66 °F -  
Max Temperature 75 °F 77 °F 90 °F (2011)
Min Temperature 59 °F 64 °F 49 °F (2007)
Cooling Degree Days 2    
Growing Degree Days 16 (Base 50)    
Moisture  
Dew Point 60 °F    
Average Humidity 74    
Maximum Humidity 88    
Minimum Humidity 62    
Precipitation  
Precipitation 0.00 in - - ()
Sea Level Pressure  
Sea Level Pressure 30.07 in    
Wind  
Wind Speed 17 mph (NNE)    
Max Wind Speed 22 mph    
Max Gust Speed 29 mph    
Visibility 10 miles    
Events      
Averages and records for this station are not official NWS values.
T = Trace of Precipitation, MM = Missing Value Source: NWS Daily Summary

Daily Weather History Graph

Daily Weather History Graph

Search for Another Location

Airport:

Trip Planner

Search our weather history database for the weather conditions in past years. The results will help you decide how hot, cold, wet, or windy it might be!

Date:

Astronomy

Apr. 16, 2014 Rise Set
Actual Time 6:56 AM EDT 7:48 PM EDT
Civil Twilight 6:32 AM EDT 8:12 PM EDT
Nautical Twilight 6:03 AM EDT 8:41 PM EDT
Astronomical Twilight 5:34 AM EDT 9:10 PM EDT
Moon 9:23 PM EDT (4/16) 7:47 AM EDT (4/16)
Length of Visible Light 13h 40m
Length of Day
12h 52m
Full, 98% of the Moon is Illuminated
Apr 16
Full
Apr 22
Last Quarter
Apr 29
New
May 6
First Quarter
May 14
Full

Hourly Weather History & Observations

Time (EDT) Temp. Dew Point Humidity Pressure Visibility Wind Dir Wind Speed Gust Speed Precip Events Conditions
12:58 AM 71.2 °F 67.1 °F 87% 29.93 in 10.0 mi NW 13.8 mph - N/A   Partly Cloudy
1:58 AM 70.2 °F 65.8 °F 86% 29.95 in 10.0 mi NNW 15.0 mph - N/A   Scattered Clouds
2:08 AM 69.8 °F 66.2 °F 88% 29.93 in 10.0 mi NNW 15.0 mph - N/A   Mostly Cloudy
2:43 AM 68.0 °F 62.6 °F 83% 29.95 in 10.0 mi North 17.3 mph - N/A   Overcast
2:58 AM 67.1 °F 62.2 °F 84% 29.96 in 10.0 mi North 16.1 mph - N/A   Overcast
3:18 AM 66.2 °F 62.6 °F 88% 29.96 in 10.0 mi North 18.4 mph 23.0 mph N/A   Overcast
3:58 AM 62.8 °F 58.1 °F 85% 29.99 in 10.0 mi North 18.4 mph 28.8 mph N/A   Overcast
4:18 AM 62.6 °F 57.2 °F 82% 29.99 in 10.0 mi North 18.4 mph 27.6 mph N/A   Overcast
4:58 AM 61.0 °F 55.6 °F 82% 30.01 in 10.0 mi North 16.1 mph 26.5 mph N/A   Overcast
5:58 AM 60.1 °F 54.5 °F 82% 30.04 in 10.0 mi North 20.7 mph 26.5 mph N/A   Overcast
6:58 AM 59.9 °F 52.7 °F 77% 30.06 in 10.0 mi North 18.4 mph 23.0 mph N/A   Overcast
7:03 AM 60.8 °F 53.6 °F 77% 30.05 in 10.0 mi North 15.0 mph 23.0 mph N/A   Overcast
7:58 AM 59.5 °F 54.3 °F 83% 30.09 in 10.0 mi NNW 15.0 mph - N/A   Overcast
8:58 AM 59.7 °F 53.6 °F 80% 30.09 in 10.0 mi North 11.5 mph - N/A   Overcast
9:58 AM 64.6 °F 56.1 °F 74% 30.11 in 10.0 mi North 12.7 mph - N/A   Mostly Cloudy
10:58 AM 68.2 °F 58.1 °F 70% 30.12 in 10.0 mi NNE 17.3 mph - N/A   Mostly Cloudy
11:58 AM 71.8 °F 59.7 °F 66% 30.14 in 10.0 mi North 15.0 mph 20.7 mph N/A   Mostly Cloudy
12:58 PM 73.0 °F 60.6 °F 65% 30.12 in 10.0 mi NNE 13.8 mph - N/A   Overcast
1:58 PM 74.1 °F 62.1 °F 66% 30.12 in 10.0 mi NNE 16.1 mph - N/A   Scattered Clouds
2:53 PM 73.4 °F 62.6 °F 69% 30.10 in 10.0 mi NE 21.9 mph - N/A   Mostly Cloudy
2:58 PM 72.9 °F 62.2 °F 69% 30.12 in 10.0 mi NE 20.7 mph - N/A   Mostly Cloudy
3:08 PM 73.4 °F 62.6 °F 69% 30.09 in 10.0 mi NE 20.7 mph - N/A   Overcast
3:23 PM 73.4 °F 60.8 °F 65% 30.09 in 10.0 mi NE 20.7 mph - N/A   Overcast
3:58 PM 73.8 °F 60.1 °F 62% 30.11 in 10.0 mi NE 18.4 mph - N/A   Mostly Cloudy
4:58 PM 72.5 °F 60.4 °F 66% 30.09 in 10.0 mi NE 20.7 mph - N/A   Mostly Cloudy
5:58 PM 72.9 °F 59.7 °F 63% 30.11 in 10.0 mi NE 18.4 mph - N/A   Mostly Cloudy
6:58 PM 72.3 °F 59.0 °F 63% 30.11 in 10.0 mi ENE 17.3 mph - N/A   Clear
7:58 PM 71.2 °F 60.6 °F 69% 30.12 in 10.0 mi ENE 19.6 mph - N/A   Clear
8:58 PM 70.7 °F 59.9 °F 69% 30.14 in 10.0 mi ENE 18.4 mph - N/A   Scattered Clouds
9:58 PM 70.3 °F 59.2 °F 68% 30.16 in 10.0 mi ENE 17.3 mph - N/A   Clear
10:58 PM 70.2 °F 60.4 °F 71% 30.16 in 10.0 mi ENE 18.4 mph 25.3 mph N/A   Clear
11:58 PM 70.2 °F 61.5 °F 74% 30.16 in 10.0 mi ENE 18.4 mph - N/A   Clear